• In Deutschland
  • Länderverzeichnis
  • Für 7 Tage
  • Wassertemperatur
  • Satellitenkarten
  • Wetterkarte
  • Widgets
  • user-avatar
    Anmelden

    Stündliche Wetter Übach-Palenberg

    Heute, 13 Dezember, Mittwoch

    Zeit Temperatur Niederschläge Wind Luftdruck Luftfeuchtigkeit
    00:00 -1°C° 0 mm 4 m/S 750 mmHg 89%
    01:00 -1°C° 0 mm 5 m/S 749 mmHg 88%
    02:00 -1°C° 0 mm 5 m/S 749 mmHg 88%
    03:00 -1°C° 0 mm 5 m/S 748 mmHg 87%
    04:00 -1°C° 0 mm 6 m/S 747 mmHg 86%
    05:00 -1°C° 0 mm 6 m/S 747 mmHg 84%
    06:00 0°C° 0 mm 7 m/S 746 mmHg 83%
    07:00 0°C° 0,5 mm 7 m/S 745 mmHg 83%
    08:00 +1°C° 0,5 mm 8 m/S 744 mmHg 82%
    09:00 +1°C° 0,5 mm 8 m/S 743 mmHg 82%
    10:00 +1°C° 1,1 mm 8 m/S 743 mmHg 83%
    11:00 +2°C° 1,1 mm 8 m/S 742 mmHg 83%
    12:00 +2°C° 1,1 mm 9 m/S 741 mmHg 83%
    13:00 +2°C° 0,9 mm 8 m/S 740 mmHg 85%
    14:00 +3°C° 0,9 mm 7 m/S 740 mmHg 87%
    15:00 +4°C° 0,9 mm 6 m/S 739 mmHg 89%
    16:00 +4°C° 0,1 mm 7 m/S 738 mmHg 89%
    17:00 +4°C° 0,1 mm 7 m/S 736 mmHg 88%
    18:00 +5°C° 0,1 mm 7 m/S 735 mmHg 87%
    19:00 +5°C° 2,2 mm 8 m/S 734 mmHg 86%
    20:00 +5°C° 2,2 mm 8 m/S 734 mmHg 86%
    21:00 +5°C° 2,2 mm 8 m/S 733 mmHg 86%
    22:00 +4°C° 0,3 mm 7 m/S 733 mmHg 84%
    23:00 +2°C° 0,3 mm 6 m/S 733 mmHg 81%

    Morgen, 14 Dezember, Donnerstag

    Zeit Temperatur Niederschläge Wind Luftdruck Luftfeuchtigkeit
    00:00 +1°C° 0,3 mm 5 m/S 734 mmHg 79%
    01:00 +2°C° 0,8 mm 7 m/S 734 mmHg 77%
    02:00 +1°C° 0,8 mm 9 m/S 734 mmHg 75%
    03:00 +1°C° 0,8 mm 11 m/S 734 mmHg 73%
    04:00 0°C° 0,1 mm 10 m/S 735 mmHg 72%
    05:00 0°C° 0,1 mm 9 m/S 736 mmHg 71%
    06:00 -1°C° 0,1 mm 8 m/S 737 mmHg 70%
    07:00 0°C° 0 mm 8 m/S 738 mmHg 72%
    08:00 0°C° 0 mm 8 m/S 738 mmHg 73%
    09:00 0°C° 0 mm 7 m/S 738 mmHg 74%
    10:00 +2°C° 0,3 mm 7 m/S 738 mmHg 75%
    11:00 +2°C° 0,3 mm 7 m/S 738 mmHg 76%
    12:00 +2°C° 0,3 mm 7 m/S 737 mmHg 77%
    13:00 +2°C° 0,3 mm 7 m/S 737 mmHg 79%
    14:00 +2°C° 0,3 mm 6 m/S 736 mmHg 81%
    15:00 +2°C° 0,3 mm 5 m/S 735 mmHg 83%
    16:00 +2°C° 0,3 mm 5 m/S 735 mmHg 85%
    17:00 +3°C° 0,3 mm 4 m/S 735 mmHg 87%
    18:00 +1°C° 0,3 mm 4 m/S 734 mmHg 89%
    19:00 +1°C° 0,2 mm 4 m/S 734 mmHg 89%
    20:00 +2°C° 0,2 mm 3 m/S 734 mmHg 89%
    21:00 +2°C° 0,2 mm 3 m/S 734 mmHg 89%
    22:00 0°C° 0 mm 4 m/S 734 mmHg 88%
    23:00 0°C° 0 mm 4 m/S 735 mmHg 87%

    übermorgen, 15 Dezember, Freitag

    Zeit Temperatur Niederschläge Wind Luftdruck Luftfeuchtigkeit
    00:00 0°C° 0 mm 4 m/S 735 mmHg 86%
    01:00 -1°C° 0 mm 4 m/S 735 mmHg 86%
    02:00 -1°C° 0 mm 4 m/S 735 mmHg 86%
    03:00 -1°C° 0 mm 4 m/S 736 mmHg 86%
    04:00 -1°C° 0,2 mm 4 m/S 736 mmHg 86%
    05:00 0°C° 0,2 mm 4 m/S 736 mmHg 86%
    06:00 0°C° 0,2 mm 4 m/S 736 mmHg 86%
    07:00 0°C° 0,3 mm 4 m/S 736 mmHg 87%
    08:00 +1°C° 0,3 mm 4 m/S 736 mmHg 88%
    09:00 +1°C° 0,3 mm 4 m/S 736 mmHg 89%
    10:00 +3°C° 0,2 mm 4 m/S 737 mmHg 88%
    11:00 +3°C° 0,2 mm 4 m/S 737 mmHg 87%
    12:00 +3°C° 0,2 mm 4 m/S 737 mmHg 86%
    13:00 +3°C° 0,1 mm 4 m/S 737 mmHg 88%
    14:00 +3°C° 0,1 mm 3 m/S 737 mmHg 89%
    15:00 +4°C° 0,1 mm 2 m/S 737 mmHg 91%
    16:00 +3°C° 0 mm 2 m/S 738 mmHg 92%
    17:00 +3°C° 0 mm 2 m/S 738 mmHg 93%
    18:00 +2°C° 0 mm 2 m/S 739 mmHg 94%
    19:00 +2°C° 0 mm 2 m/S 739 mmHg 94%
    20:00 +2°C° 0 mm 2 m/S 740 mmHg 95%
    21:00 +1°C° 0 mm 2 m/S 741 mmHg 95%
    22:00 0°C° 0 mm 3 m/S 741 mmHg 94%
    23:00 0°C° 0 mm 3 m/S 742 mmHg 93%

    16 Dezember, Samstag

    Zeit Temperatur Niederschläge Wind Luftdruck Luftfeuchtigkeit
    00:00 +1°C° 0 mm 3 m/S 742 mmHg 92%
    01:00 +1°C° 0,1 mm 3 m/S 742 mmHg 91%
    02:00 0°C° 0,1 mm 4 m/S 743 mmHg 90%
    03:00 0°C° 0,1 mm 4 m/S 743 mmHg 89%
    04:00 0°C° 0,2 mm 4 m/S 744 mmHg 88%
    05:00 0°C° 0,2 mm 5 m/S 744 mmHg 88%
    06:00 0°C° 0,2 mm 5 m/S 745 mmHg 88%
    07:00 0°C° 0,1 mm 5 m/S 745 mmHg 87%
    08:00 0°C° 0,1 mm 5 m/S 746 mmHg 87%
    09:00 0°C° 0,1 mm 5 m/S 746 mmHg 86%
    10:00 +1°C° 0,2 mm 5 m/S 747 mmHg 84%
    11:00 +2°C° 0,2 mm 5 m/S 747 mmHg 82%
    12:00 +2°C° 0,2 mm 5 m/S 748 mmHg 80%
    13:00 +2°C° 0,4 mm 5 m/S 748 mmHg 81%
    14:00 +3°C° 0,4 mm 4 m/S 749 mmHg 81%
    15:00 +1°C° 0,4 mm 4 m/S 749 mmHg 81%
    16:00 +1°C° 0,3 mm 4 m/S 750 mmHg 83%
    17:00 +1°C° 0,3 mm 4 m/S 750 mmHg 85%
    18:00 0°C° 0,3 mm 4 m/S 751 mmHg 87%
    19:00 0°C° 0,2 mm 4 m/S 752 mmHg 87%
    20:00 +1°C° 0,2 mm 3 m/S 752 mmHg 88%
    21:00 +1°C° 0,2 mm 3 m/S 753 mmHg 89%
    22:00 0°C° 0,1 mm 3 m/S 754 mmHg 90%
    23:00 0°C° 0,1 mm 3 m/S 754 mmHg 90%

    17 Dezember, Sonntag

    Zeit Temperatur Niederschläge Wind Luftdruck Luftfeuchtigkeit
    00:00 0°C° 0,1 mm 3 m/S 755 mmHg 91%
    01:00 0°C° 0,1 mm 3 m/S 755 mmHg 91%
    02:00 0°C° 0,1 mm 3 m/S 755 mmHg 91%
    03:00 0°C° 0,1 mm 3 m/S 756 mmHg 91%
    04:00 0°C° 0,1 mm 3 m/S 756 mmHg 92%
    05:00 0°C° 0,1 mm 3 m/S 757 mmHg 92%
    06:00 0°C° 0,1 mm 3 m/S 757 mmHg 93%
    07:00 0°C° 0 mm 3 m/S 758 mmHg 93%
    08:00 0°C° 0 mm 3 m/S 759 mmHg 92%
    09:00 0°C° 0 mm 3 m/S 759 mmHg 92%
    10:00 +1°C° 0 mm 3 m/S 759 mmHg 91%
    11:00 +2°C° 0 mm 3 m/S 760 mmHg 90%
    12:00 +2°C° 0 mm 3 m/S 760 mmHg 88%
    13:00 +2°C° 0 mm 3 m/S 760 mmHg 89%
    14:00 +2°C° 0 mm 2 m/S 760 mmHg 90%
    15:00 +2°C° 0 mm 2 m/S 760 mmHg 92%
    16:00 +2°C° 0 mm 2 m/S 760 mmHg 92%
    17:00 0°C° 0 mm 3 m/S 760 mmHg 92%
    18:00 -1°C° 0 mm 3 m/S 761 mmHg 92%
    19:00 0°C° 0 mm 3 m/S 761 mmHg 93%
    20:00 0°C° 0 mm 3 m/S 760 mmHg 93%
    21:00 0°C° 0 mm 3 m/S 760 mmHg 93%
    22:00 +1°C° 0 mm 3 m/S 760 mmHg 93%
    23:00 0°C° 0 mm 4 m/S 760 mmHg 93%

    18 Dezember, Montag

    Zeit Temperatur Niederschläge Wind Luftdruck Luftfeuchtigkeit
    00:00 0°C° 0 mm 4 m/S 759 mmHg 93%
    01:00 +1°C° 0 mm 4 m/S 759 mmHg 93%
    02:00 +1°C° 0 mm 4 m/S 758 mmHg 93%
    03:00 +2°C° 0 mm 5 m/S 757 mmHg 93%
    04:00 +2°C° 0,9 mm 5 m/S 757 mmHg 93%
    05:00 +2°C° 0,9 mm 6 m/S 756 mmHg 92%
    06:00 +3°C° 0,9 mm 6 m/S 755 mmHg 92%
    07:00 +3°C° 0,7 mm 6 m/S 755 mmHg 93%
    08:00 +3°C° 0,7 mm 6 m/S 755 mmHg 94%
    09:00 +4°C° 0,7 mm 6 m/S 754 mmHg 94%
    10:00 +5°C° 0,2 mm 5 m/S 754 mmHg 94%
    11:00 +6°C° 0,2 mm 5 m/S 754 mmHg 94%
    12:00 +6°C° 0,2 mm 5 m/S 754 mmHg 94%
    13:00 +6°C° 0,1 mm 4 m/S 755 mmHg 93%
    14:00 +6°C° 0,1 mm 4 m/S 755 mmHg 93%
    15:00 +6°C° 0,1 mm 4 m/S 755 mmHg 93%
    16:00 +6°C° 0,1 mm 4 m/S 756 mmHg 93%
    17:00 +6°C° 0,1 mm 4 m/S 756 mmHg 93%
    18:00 +5°C° 0,1 mm 4 m/S 757 mmHg 93%
    19:00 +5°C° 0,1 mm 4 m/S 758 mmHg 92%
    20:00 +5°C° 0,1 mm 4 m/S 758 mmHg 92%
    21:00 +5°C° 0,1 mm 3 m/S 759 mmHg 91%
    22:00 +5°C° 0,1 mm 3 m/S 759 mmHg 91%
    23:00 +4°C° 0,1 mm 3 m/S 760 mmHg 90%
    Mehr zeigen